Regional Weather Roundup
Issued by NWS Nashville, TN

Home | Current Version | Previous Version | Text Only | Print | Product List | Glossary On
Versions: 1 2 3 4 5 6 7 8 9 10 11 12 13 14 15 16 17 18 19 20 21 22 23 24 25 26 27 28 29 30 31 32 33 34 35 36 37 38 39 40 41 42 43 44 45 46 47 48 49 50
000
ASUS44 KOHX 260515
RWROHX
MIDDLE TENNESSEE HOURLY WEATHER ROUNDUP
NATIONAL WEATHER SERVICE NASHVILLE TN
1200 AM CDT SAT JUL 26 2014

NOTE: "FAIR" INDICATES FEW OR NO CLOUDS BELOW 12,000 FEET WITH
NO SIGNIFICANT WEATHER AND/OR OBSTRUCTIONS TO VISIBILITY.

* THESE REPORTS ARE NOT UNDER NWS QUALITY CONTROL AND MAY NOT
  REPORT WEATHER SUCH AS PRECIPITATION AND FOG.


TNZ005>011-023>034-057-059-062>066-078-080-260600
...NORTHERN MIDDLE TENNESSEE...

CITY           SKY/WX    TMP DP  RH WIND       PRES   REMARKS
CLARKSVILLE    PTCLDY    67  62  84 CALM      30.01R
CROSSVILLE     PTCLDY    63  58  83 CALM      30.11R
GALLATIN         N/A     71  65  81 CALM      30.04R
DICKSON        PTCLDY    64  63  94 CALM      30.03R
LEBANON        PTCLDY    72  62  70 CALM      30.02R
LIVINGSTON       N/A     64  57  78 CALM      30.07R
NASHVILLE      MOCLDY    71  64  78 CALM      30.03R
WEST NASHVILLE   N/A     70  64  83 CALM      30.02R
PORTLAND       PTCLDY    66  63  88 S3        30.03R
SMYRNA         PTCLDY    68  65  90 CALM      30.04R
SPARTA         CLEAR     63  61  94 CALM      30.06R
$$
TNZ056-058-060-061-075>077-079-093>097-260600
...SOUTHERN MIDDLE TENNESSEE...

CITY           SKY/WX    TMP DP  RH WIND       PRES   REMARKS
COLUMBIA       CLEAR     66  64  94 CALM      30.02R
FAYETTEVILLE   CLEAR     70  63  78 CALM      30.04S
LEWISBURG      PTCLDY    65  62  90 CALM      30.03R
MCMINNVILLE    CLEAR     64  64 100 CALM      30.06R
MURFREESBORO   PTCLDY    70  64  81 CALM      30.03R
SHELBYVILLE    CLEAR     66  64  94 E5        30.05R
TULLAHOMA      CLEAR     66  61  82 CALM      30.06R
WINCHESTER     CLEAR     68  63  83 CALM      30.05S
$$


...KEY TO REMARKS...
VSB - VISIBILITY IN MILES
WCI - WIND CHILL INDEX
HX  - HEAT INDEX



USA.gov is the U.S. government's official web portal to all federal, state and local government web resources and services.